Year,Month,Day,Hour,Minute,Value (Times are PST for temperature in C)
2012,07,19,00,00,14.20
2012,07,19,00,01,14.20
2012,07,19,00,02,14.20
2012,07,19,00,03,14.20
2012,07,19,00,04,14.20
2012,07,19,00,05,14.20
2012,07,19,00,06,14.20
2012,07,19,00,07,14.20
2012,07,19,00,08,14.20
2012,07,19,00,09,14.20
2012,07,19,00,10,14.20
2012,07,19,00,11,14.20
2012,07,19,00,12,14.20
2012,07,19,00,13,14.20
2012,07,19,00,14,14.20
2012,07,19,00,15,14.20
2012,07,19,00,16,14.20
2012,07,19,00,17,14.20
2012,07,19,00,18,14.20
2012,07,19,00,19,14.20
2012,07,19,00,20,14.20
2012,07,19,00,21,14.10
2012,07,19,00,22,14.10
2012,07,19,00,23,14.10
2012,07,19,00,24,14.10
2012,07,19,00,25,14.10
2012,07,19,00,26,14.10
2012,07,19,00,27,14.10
2012,07,19,00,28,14.10
2012,07,19,00,29,14.00
2012,07,19,00,30,14.00
2012,07,19,00,31,14.00
2012,07,19,00,32,14.00
2012,07,19,00,33,14.00
2012,07,19,00,34,14.00
2012,07,19,00,35,14.00
2012,07,19,00,36,14.00
2012,07,19,00,37,14.00
2012,07,19,00,38,14.00
2012,07,19,00,39,14.00
2012,07,19,00,40,14.00
2012,07,19,00,41,13.90
2012,07,19,00,42,13.90
2012,07,19,00,43,13.90
2012,07,19,00,44,13.90
2012,07,19,00,45,13.80
2012,07,19,00,46,13.80
2012,07,19,00,47,13.80
2012,07,19,00,48,13.80
2012,07,19,00,49,13.70
2012,07,19,00,50,13.70
2012,07,19,00,51,13.70
2012,07,19,00,52,13.70
2012,07,19,00,53,13.70
2012,07,19,00,54,13.70
2012,07,19,00,55,13.70
2012,07,19,00,56,13.70
2012,07,19,00,57,13.70
2012,07,19,00,58,13.70
2012,07,19,00,59,13.70
2012,07,19,01,00,13.70
2012,07,19,01,01,13.70
2012,07,19,01,02,13.70
2012,07,19,01,03,13.70
2012,07,19,01,04,13.70
2012,07,19,01,05,13.70
2012,07,19,01,06,13.70
2012,07,19,01,07,13.70
2012,07,19,01,08,13.60
2012,07,19,01,09,13.60
2012,07,19,01,10,13.60
2012,07,19,01,11,13.60
2012,07,19,01,12,13.60
2012,07,19,01,13,13.60
2012,07,19,01,14,13.50
2012,07,19,01,15,13.50
2012,07,19,01,16,13.50
2012,07,19,01,17,13.50
2012,07,19,01,18,13.50
2012,07,19,01,19,13.50
2012,07,19,01,20,13.50
2012,07,19,01,21,13.50
2012,07,19,01,22,13.40
2012,07,19,01,23,13.40
2012,07,19,01,24,13.40
2012,07,19,01,25,13.40
2012,07,19,01,26,13.40
2012,07,19,01,27,13.40
2012,07,19,01,28,13.30
2012,07,19,01,29,13.30
2012,07,19,01,30,13.30
2012,07,19,01,31,13.30
2012,07,19,01,32,13.30
2012,07,19,01,33,13.30
2012,07,19,01,34,13.30
2012,07,19,01,35,13.30
2012,07,19,01,36,13.30
2012,07,19,01,37,13.30
2012,07,19,01,38,13.30
2012,07,19,01,39,13.30
2012,07,19,01,40,13.30
2012,07,19,01,41,13.30
2012,07,19,01,42,13.30
2012,07,19,01,43,13.30
2012,07,19,01,44,13.30
2012,07,19,01,45,13.30
2012,07,19,01,46,13.20
2012,07,19,01,47,13.20
2012,07,19,01,48,13.20
2012,07,19,01,49,13.20
2012,07,19,01,50,13.20
2012,07,19,01,51,13.20
2012,07,19,01,52,13.20
2012,07,19,01,53,13.20
2012,07,19,01,54,13.30
2012,07,19,01,55,13.30
2012,07,19,01,56,13.30
2012,07,19,01,57,13.30
2012,07,19,01,58,13.30
2012,07,19,01,59,13.30
2012,07,19,02,00,13.30
2012,07,19,02,01,13.30
2012,07,19,02,02,13.30
2012,07,19,02,03,13.30
2012,07,19,02,04,13.30
2012,07,19,02,05,13.30
2012,07,19,02,06,13.30
2012,07,19,02,07,13.30
2012,07,19,02,08,13.40
2012,07,19,02,09,13.40
2012,07,19,02,10,13.40
2012,07,19,02,11,13.40
2012,07,19,02,12,13.40
2012,07,19,02,13,13.40
2012,07,19,02,14,13.40
2012,07,19,02,15,13.40
2012,07,19,02,16,13.40
2012,07,19,02,17,13.40
2012,07,19,02,18,13.40
2012,07,19,02,19,13.40
2012,07,19,02,20,13.40
2012,07,19,02,21,13.40
2012,07,19,02,22,13.50
2012,07,19,02,23,13.50
2012,07,19,02,24,13.50
2012,07,19,02,25,13.50
2012,07,19,02,26,13.50
2012,07,19,02,27,13.50
2012,07,19,02,28,13.50
2012,07,19,02,29,13.50
2012,07,19,02,30,13.60
2012,07,19,02,31,13.60
2012,07,19,02,32,13.60
2012,07,19,02,33,13.60
2012,07,19,02,34,13.60
2012,07,19,02,35,13.60
2012,07,19,02,36,13.60
2012,07,19,02,37,13.60
2012,07,19,02,38,13.60
2012,07,19,02,39,13.60
2012,07,19,02,40,13.70
2012,07,19,02,41,13.70
2012,07,19,02,42,13.70
2012,07,19,02,43,13.70
2012,07,19,02,44,13.70
2012,07,19,02,45,13.70
2012,07,19,02,46,13.70
2012,07,19,02,47,13.80
2012,07,19,02,48,13.80
2012,07,19,02,49,13.80
2012,07,19,02,50,13.80
2012,07,19,02,51,13.80
2012,07,19,02,52,13.80
2012,07,19,02,53,13.80
2012,07,19,02,54,13.90
2012,07,19,02,55,13.90
2012,07,19,02,56,13.90
2012,07,19,02,57,13.90
2012,07,19,02,58,13.90
2012,07,19,02,59,13.90
2012,07,19,03,00,13.90
2012,07,19,03,01,13.90
2012,07,19,03,02,13.90
2012,07,19,03,03,13.90
2012,07,19,03,04,13.90
2012,07,19,03,05,14.00
2012,07,19,03,06,14.00
2012,07,19,03,07,14.00
2012,07,19,03,08,14.00
2012,07,19,03,09,14.00
2012,07,19,03,10,14.00
2012,07,19,03,11,14.00
2012,07,19,03,12,14.00
2012,07,19,03,13,14.00
2012,07,19,03,14,14.00
2012,07,19,03,15,14.00
2012,07,19,03,16,14.00
2012,07,19,03,17,14.00
2012,07,19,03,18,14.10
2012,07,19,03,19,14.10
2012,07,19,03,20,14.10
2012,07,19,03,21,14.10
2012,07,19,03,22,14.10
2012,07,19,03,23,14.20
2012,07,19,03,24,14.20
2012,07,19,03,25,14.20
2012,07,19,03,26,14.20
2012,07,19,03,27,14.20
2012,07,19,03,28,14.20
2012,07,19,03,29,14.30
2012,07,19,03,30,14.30
2012,07,19,03,31,14.30
2012,07,19,03,32,14.30
2012,07,19,03,33,14.40
2012,07,19,03,34,14.40
2012,07,19,03,35,14.40
2012,07,19,03,36,14.50
2012,07,19,03,37,14.50
2012,07,19,03,38,14.50
2012,07,19,03,39,14.50
2012,07,19,03,40,14.50
2012,07,19,03,41,14.50
2012,07,19,03,42,14.50
2012,07,19,03,43,14.50
2012,07,19,03,44,14.50
2012,07,19,03,45,14.50
2012,07,19,03,46,14.50
2012,07,19,03,47,14.50
2012,07,19,03,48,14.50
2012,07,19,03,49,14.50
2012,07,19,03,50,14.50
2012,07,19,03,51,14.50
2012,07,19,03,52,14.60
2012,07,19,03,53,14.60
2012,07,19,03,54,14.60
2012,07,19,03,55,14.60
2012,07,19,03,56,14.60
2012,07,19,03,57,14.50
2012,07,19,03,58,14.50
2012,07,19,03,59,14.50
2012,07,19,04,00,14.50
2012,07,19,04,01,14.50
2012,07,19,04,02,14.50
2012,07,19,04,03,14.50
2012,07,19,04,04,14.50
2012,07,19,04,05,14.50
2012,07,19,04,06,14.50
2012,07,19,04,07,14.50
2012,07,19,04,08,14.50
2012,07,19,04,09,14.50
2012,07,19,04,10,14.50
2012,07,19,04,11,14.50
2012,07,19,04,12,14.50
2012,07,19,04,13,14.40
2012,07,19,04,14,14.40
2012,07,19,04,15,14.40
2012,07,19,04,16,14.40
2012,07,19,04,17,14.40
2012,07,19,04,18,14.40
2012,07,19,04,19,14.40
2012,07,19,04,20,14.30
2012,07,19,04,21,14.30
2012,07,19,04,22,14.30
2012,07,19,04,23,14.30
2012,07,19,04,24,14.20
2012,07,19,04,25,14.20
2012,07,19,04,26,14.20
2012,07,19,04,27,14.20
2012,07,19,04,28,14.20
2012,07,19,04,29,14.20
2012,07,19,04,30,14.20
2012,07,19,04,31,14.20
2012,07,19,04,32,14.10
2012,07,19,04,33,14.10
2012,07,19,04,34,14.10
2012,07,19,04,35,14.10
2012,07,19,04,36,14.00
2012,07,19,04,37,14.00
2012,07,19,04,38,14.00
2012,07,19,04,39,14.00
2012,07,19,04,40,14.00
2012,07,19,04,41,13.90
2012,07,19,04,42,13.90
2012,07,19,04,43,13.90
2012,07,19,04,44,13.90
2012,07,19,04,45,13.90
2012,07,19,04,46,13.90
2012,07,19,04,47,13.80
2012,07,19,04,48,13.80
2012,07,19,04,49,13.80
2012,07,19,04,50,13.70
2012,07,19,04,51,13.70
2012,07,19,04,52,13.70
2012,07,19,04,53,13.70
2012,07,19,04,54,13.70
2012,07,19,04,55,13.70
2012,07,19,04,56,13.70
2012,07,19,04,57,13.70
2012,07,19,04,58,13.70
2012,07,19,04,59,13.60
2012,07,19,05,00,13.60
2012,07,19,05,01,13.60
2012,07,19,05,02,13.60
2012,07,19,05,03,13.60
2012,07,19,05,04,13.50
2012,07,19,05,05,13.50
2012,07,19,05,06,13.50
2012,07,19,05,07,13.50
2012,07,19,05,08,13.50
2012,07,19,05,09,13.50
2012,07,19,05,10,13.50
2012,07,19,05,11,13.40
2012,07,19,05,12,13.40
2012,07,19,05,13,13.40
2012,07,19,05,14,13.30
2012,07,19,05,15,13.30
2012,07,19,05,16,13.30
2012,07,19,05,17,13.30
2012,07,19,05,18,13.30
2012,07,19,05,19,13.30
2012,07,19,05,20,13.30
2012,07,19,05,21,13.20
2012,07,19,05,22,13.20
2012,07,19,05,23,13.20
2012,07,19,05,24,13.20
2012,07,19,05,25,13.10
2012,07,19,05,26,13.10
2012,07,19,05,27,13.10
2012,07,19,05,28,13.10
2012,07,19,05,29,13.10
2012,07,19,05,30,13.10
2012,07,19,05,31,13.10
2012,07,19,05,32,13.10
2012,07,19,05,33,13.00
2012,07,19,05,34,13.00
2012,07,19,05,35,13.00
2012,07,19,05,36,13.00
2012,07,19,05,37,13.00
2012,07,19,05,38,12.90
2012,07,19,05,39,12.90
2012,07,19,05,40,12.90
2012,07,19,05,41,12.90
2012,07,19,05,42,12.80
2012,07,19,05,43,12.80
2012,07,19,05,44,12.80
2012,07,19,05,45,12.80
2012,07,19,05,46,12.80
2012,07,19,05,47,12.80
2012,07,19,05,48,12.80
2012,07,19,05,49,12.80
2012,07,19,05,50,12.80
2012,07,19,05,51,12.80
2012,07,19,05,52,12.80
2012,07,19,05,53,12.80
2012,07,19,05,54,12.80
2012,07,19,05,55,12.90
2012,07,19,05,56,12.90
2012,07,19,05,57,12.90
2012,07,19,05,58,13.00
2012,07,19,05,59,13.00
2012,07,19,06,00,13.00
2012,07,19,06,01,13.00
2012,07,19,06,02,13.00
2012,07,19,06,03,13.00
2012,07,19,06,04,13.00
2012,07,19,06,05,13.00
2012,07,19,06,06,12.90
2012,07,19,06,07,12.90
2012,07,19,06,08,12.90
2012,07,19,06,09,12.90
2012,07,19,06,10,12.90
2012,07,19,06,11,12.90
2012,07,19,06,12,12.90
2012,07,19,06,13,12.80
2012,07,19,06,14,12.80
2012,07,19,06,15,12.80
2012,07,19,06,16,12.80
2012,07,19,06,17,12.80
2012,07,19,06,18,12.80
2012,07,19,06,19,12.80
2012,07,19,06,20,12.70
2012,07,19,06,21,12.70
2012,07,19,06,22,12.70
2012,07,19,06,23,12.70
2012,07,19,06,24,12.70
2012,07,19,06,25,12.70
2012,07,19,06,26,12.70
2012,07,19,06,27,12.70
2012,07,19,06,28,12.70
2012,07,19,06,29,12.70
2012,07,19,06,30,12.70
2012,07,19,06,31,12.80
2012,07,19,06,32,12.80
2012,07,19,06,33,12.90
2012,07,19,06,34,13.00
2012,07,19,06,35,13.00
2012,07,19,06,36,13.00
2012,07,19,06,37,13.00
2012,07,19,06,38,13.10
2012,07,19,06,39,13.10
2012,07,19,06,40,13.10
2012,07,19,06,41,13.10
2012,07,19,06,42,13.20
2012,07,19,06,43,13.20
2012,07,19,06,44,13.20
2012,07,19,06,45,13.20
2012,07,19,06,46,13.20
2012,07,19,06,47,13.20
2012,07,19,06,48,13.20
2012,07,19,06,49,13.20
2012,07,19,06,50,13.30
2012,07,19,06,51,13.30
2012,07,19,06,52,13.30
2012,07,19,06,53,13.30
2012,07,19,06,54,13.30
2012,07,19,06,55,13.30
2012,07,19,06,56,13.30
2012,07,19,06,57,13.40
2012,07,19,06,58,13.40
2012,07,19,06,59,13.50
2012,07,19,07,00,13.50
2012,07,19,07,01,13.50
2012,07,19,07,02,13.50
2012,07,19,07,03,13.60
2012,07,19,07,04,13.60
2012,07,19,07,05,13.60
2012,07,19,07,06,13.60
2012,07,19,07,07,13.60
2012,07,19,07,08,13.60
2012,07,19,07,09,13.60
2012,07,19,07,10,13.60
2012,07,19,07,11,13.70
2012,07,19,07,12,13.70
2012,07,19,07,13,13.70
2012,07,19,07,14,13.70
2012,07,19,07,15,13.70
2012,07,19,07,16,13.70
2012,07,19,07,17,13.70
2012,07,19,07,18,13.70
2012,07,19,07,19,13.70
2012,07,19,07,20,13.70
2012,07,19,07,21,13.70
2012,07,19,07,22,13.70
2012,07,19,07,23,13.70
2012,07,19,07,24,13.70
2012,07,19,07,25,13.70
2012,07,19,07,26,13.70
2012,07,19,07,27,13.70
2012,07,19,07,28,13.70
2012,07,19,07,29,13.80
2012,07,19,07,30,13.80
2012,07,19,07,31,13.80
2012,07,19,07,32,13.90
2012,07,19,07,33,13.90
2012,07,19,07,34,13.90
2012,07,19,07,35,13.90
2012,07,19,07,36,14.00
2012,07,19,07,37,14.00
2012,07,19,07,38,14.00
2012,07,19,07,39,14.00
2012,07,19,07,40,14.10
2012,07,19,07,41,14.10
2012,07,19,07,42,14.10
2012,07,19,07,43,14.10
2012,07,19,07,44,14.10
2012,07,19,07,45,14.20
2012,07,19,07,46,14.20
2012,07,19,07,47,14.20
2012,07,19,07,48,14.20
2012,07,19,07,49,14.20
2012,07,19,07,50,14.20
2012,07,19,07,51,14.20
2012,07,19,07,52,14.20
2012,07,19,07,53,14.20
2012,07,19,07,54,14.30
2012,07,19,07,55,14.30
2012,07,19,07,56,14.40
2012,07,19,07,57,14.40
2012,07,19,07,58,14.50
2012,07,19,07,59,14.50
2012,07,19,08,00,14.60
2012,07,19,08,01,14.60
2012,07,19,08,02,14.70
2012,07,19,08,03,14.70
2012,07,19,08,04,14.80
2012,07,19,08,05,14.80
2012,07,19,08,06,14.80
2012,07,19,08,07,14.90
2012,07,19,08,08,14.90
2012,07,19,08,09,14.90
2012,07,19,08,10,14.90
2012,07,19,08,11,15.00
2012,07,19,08,12,15.00
2012,07,19,08,13,15.10
2012,07,19,08,14,15.10
2012,07,19,08,15,15.20
2012,07,19,08,16,15.20
2012,07,19,08,17,15.20
2012,07,19,08,18,15.20
2012,07,19,08,19,15.20
2012,07,19,08,20,15.30
2012,07,19,08,21,15.30
2012,07,19,08,22,15.50
2012,07,19,08,23,15.50
2012,07,19,08,24,15.60
2012,07,19,08,25,15.70
2012,07,19,08,26,15.70
2012,07,19,08,27,15.80
2012,07,19,08,28,15.80
2012,07,19,08,29,15.90
2012,07,19,08,30,16.00
2012,07,19,08,31,16.10
2012,07,19,08,32,16.20
2012,07,19,08,33,16.20
2012,07,19,08,34,16.30
2012,07,19,08,35,16.40
2012,07,19,08,36,16.40
2012,07,19,08,37,16.50
2012,07,19,08,38,16.60
2012,07,19,08,39,16.70
2012,07,19,08,40,16.80
2012,07,19,08,41,16.90
2012,07,19,08,42,17.00
2012,07,19,08,43,17.10
2012,07,19,08,44,17.30
2012,07,19,08,45,17.30
2012,07,19,08,46,17.40
2012,07,19,08,47,17.50
2012,07,19,08,48,17.70
2012,07,19,08,49,17.80
2012,07,19,08,50,17.90
2012,07,19,08,51,17.90
2012,07,19,08,52,18.10
2012,07,19,08,53,18.20
2012,07,19,08,54,18.30
2012,07,19,08,55,18.40
2012,07,19,08,56,18.50
2012,07,19,08,57,18.50
2012,07,19,08,58,18.60
2012,07,19,08,59,18.60
2012,07,19,09,00,18.70
2012,07,19,09,01,18.80
2012,07,19,09,02,18.90
2012,07,19,09,03,18.90
2012,07,19,09,04,19.00
2012,07,19,09,05,19.10
2012,07,19,09,06,19.10
2012,07,19,09,07,19.30
2012,07,19,09,08,19.40
2012,07,19,09,09,19.50
2012,07,19,09,10,19.60
2012,07,19,09,11,19.70
2012,07,19,09,12,19.80
2012,07,19,09,13,19.80
2012,07,19,09,14,19.90
2012,07,19,09,15,19.90
2012,07,19,09,16,20.10
2012,07,19,09,17,20.20
2012,07,19,09,18,20.20
2012,07,19,09,19,20.20
2012,07,19,09,20,20.20
2012,07,19,09,21,20.20
2012,07,19,09,22,20.20
2012,07,19,09,23,20.20
2012,07,19,09,24,20.10
2012,07,19,09,25,20.00
2012,07,19,09,26,19.90
2012,07,19,09,27,19.80
2012,07,19,09,28,19.70
2012,07,19,09,29,19.60
2012,07,19,09,30,19.50
2012,07,19,09,31,19.40
2012,07,19,09,32,19.20
2012,07,19,09,33,19.00
2012,07,19,09,34,18.70
2012,07,19,09,35,18.50
2012,07,19,09,36,18.50
2012,07,19,09,37,18.50
2012,07,19,09,38,18.40
2012,07,19,09,39,18.30
2012,07,19,09,40,18.20
2012,07,19,09,41,18.30
2012,07,19,09,42,18.30
2012,07,19,09,43,18.30
2012,07,19,09,44,18.20
2012,07,19,09,45,18.20
2012,07,19,09,46,18.30
2012,07,19,09,47,18.30
2012,07,19,09,48,18.40
2012,07,19,09,49,18.40
2012,07,19,09,50,18.50
2012,07,19,09,51,18.60
2012,07,19,09,52,18.60
2012,07,19,09,53,18.60
2012,07,19,09,54,18.60
2012,07,19,09,55,18.70
2012,07,19,09,56,18.70
2012,07,19,09,57,18.70
2012,07,19,09,58,18.70
2012,07,19,09,59,18.80
2012,07,19,10,00,19.00
2012,07,19,10,01,19.10
2012,07,19,10,02,19.30
2012,07,19,10,03,19.40
2012,07,19,10,04,19.60
2012,07,19,10,05,19.70
2012,07,19,10,06,19.90
2012,07,19,10,07,20.00
2012,07,19,10,08,20.20
2012,07,19,10,09,20.20
2012,07,19,10,10,20.10
2012,07,19,10,11,20.10
2012,07,19,10,12,20.00
2012,07,19,10,13,20.00
2012,07,19,10,14,19.90
2012,07,19,10,15,19.80
2012,07,19,10,16,19.60
2012,07,19,10,17,19.50
2012,07,19,10,18,19.50
2012,07,19,10,19,19.50
2012,07,19,10,20,19.50
2012,07,19,10,21,19.60
2012,07,19,10,22,19.70
2012,07,19,10,23,19.80
2012,07,19,10,24,19.90
2012,07,19,10,25,19.90
2012,07,19,10,26,19.90
2012,07,19,10,27,20.00
2012,07,19,10,28,20.10
2012,07,19,10,29,20.20
2012,07,19,10,30,20.30
2012,07,19,10,31,20.30
2012,07,19,10,32,20.50
2012,07,19,10,33,20.60
2012,07,19,10,34,20.50
2012,07,19,10,35,20.50
2012,07,19,10,36,20.50
2012,07,19,10,37,20.60
2012,07,19,10,38,20.60
2012,07,19,10,39,20.50
2012,07,19,10,40,20.30
2012,07,19,10,41,20.20
2012,07,19,10,42,20.20
2012,07,19,10,43,20.00
2012,07,19,10,44,20.00
2012,07,19,10,45,20.10
2012,07,19,10,46,20.20
2012,07,19,10,47,20.30
2012,07,19,10,48,20.40
2012,07,19,10,49,20.40
2012,07,19,10,50,20.50
2012,07,19,10,51,20.50
2012,07,19,10,52,20.60
2012,07,19,10,53,20.70
2012,07,19,10,54,20.90
2012,07,19,10,55,20.70
2012,07,19,10,56,20.60
2012,07,19,10,57,20.60
2012,07,19,10,58,20.60
2012,07,19,10,59,20.50
2012,07,19,11,00,20.40
2012,07,19,11,01,20.40
2012,07,19,11,02,20.40
2012,07,19,11,03,20.40
2012,07,19,11,04,20.30
2012,07,19,11,05,20.20
2012,07,19,11,06,20.40
2012,07,19,11,07,20.50
2012,07,19,11,08,20.70
2012,07,19,11,09,20.90
2012,07,19,11,10,21.00
2012,07,19,11,11,20.90
2012,07,19,11,12,20.70
2012,07,19,11,13,20.50
2012,07,19,11,14,20.50
2012,07,19,11,15,20.50
2012,07,19,11,16,20.30
2012,07,19,11,17,20.20
2012,07,19,11,18,20.20
2012,07,19,11,19,20.20
2012,07,19,11,20,20.30
2012,07,19,11,21,20.50
2012,07,19,11,22,20.60
2012,07,19,11,23,20.60
2012,07,19,11,24,20.70
2012,07,19,11,25,20.80
2012,07,19,11,26,21.00
2012,07,19,11,27,21.00
2012,07,19,11,28,20.90
2012,07,19,11,29,20.80
2012,07,19,11,30,20.70
2012,07,19,11,31,20.60
2012,07,19,11,32,20.60
2012,07,19,11,33,20.70
2012,07,19,11,34,20.80
2012,07,19,11,35,20.90
2012,07,19,11,36,20.90
2012,07,19,11,37,21.00
2012,07,19,11,38,21.00
2012,07,19,11,39,21.00
2012,07,19,11,40,21.10
2012,07,19,11,41,21.20
2012,07,19,11,42,21.30
2012,07,19,11,43,21.40
2012,07,19,11,44,21.60
2012,07,19,11,45,21.70
2012,07,19,11,46,21.70
2012,07,19,11,47,21.70
2012,07,19,11,48,21.80
2012,07,19,11,49,21.60
2012,07,19,11,50,21.20
2012,07,19,11,51,20.80
2012,07,19,11,52,20.70
2012,07,19,11,53,20.70
2012,07,19,11,54,20.70
2012,07,19,11,55,20.70
2012,07,19,11,56,20.60
2012,07,19,11,57,20.70
2012,07,19,11,58,20.60
2012,07,19,11,59,20.40
2012,07,19,12,00,20.10
2012,07,19,12,01,19.80
2012,07,19,12,02,19.60
2012,07,19,12,03,19.50
2012,07,19,12,04,19.50
2012,07,19,12,05,19.50
2012,07,19,12,06,19.60
2012,07,19,12,07,19.70
2012,07,19,12,08,19.90
2012,07,19,12,09,19.90
2012,07,19,12,10,20.00
2012,07,19,12,11,20.10
2012,07,19,12,12,20.20
2012,07,19,12,13,20.20
2012,07,19,12,14,20.10
2012,07,19,12,15,20.10
2012,07,19,12,16,20.20
2012,07,19,12,17,20.20
2012,07,19,12,18,20.30
2012,07,19,12,19,20.40
2012,07,19,12,20,20.70
2012,07,19,12,21,20.90
2012,07,19,12,22,21.00
2012,07,19,12,23,21.00
2012,07,19,12,24,20.80
2012,07,19,12,25,20.80
2012,07,19,12,26,20.90
2012,07,19,12,27,20.90
2012,07,19,12,28,20.80
2012,07,19,12,29,20.70
2012,07,19,12,30,20.50
2012,07,19,12,31,20.30
2012,07,19,12,32,20.20
2012,07,19,12,33,20.40
2012,07,19,12,34,20.60
2012,07,19,12,35,20.70
2012,07,19,12,36,20.70
2012,07,19,12,37,20.70
2012,07,19,12,38,20.60
2012,07,19,12,39,20.70
2012,07,19,12,40,20.60
2012,07,19,12,41,20.50
2012,07,19,12,42,20.70
2012,07,19,12,43,20.80
2012,07,19,12,44,20.80
2012,07,19,12,45,20.70
2012,07,19,12,46,20.80
2012,07,19,12,47,20.90
2012,07,19,12,48,21.00
2012,07,19,12,49,21.00
2012,07,19,12,50,20.80
2012,07,19,12,51,20.70
2012,07,19,12,52,20.60
2012,07,19,12,53,20.60
2012,07,19,12,54,20.70
2012,07,19,12,55,20.80
2012,07,19,12,56,20.90
2012,07,19,12,57,20.90
2012,07,19,12,58,21.00
2012,07,19,12,59,21.10
2012,07,19,13,00,21.00
2012,07,19,13,01,21.10
2012,07,19,13,02,21.20
2012,07,19,13,03,21.30
2012,07,19,13,04,21.30
2012,07,19,13,05,21.40
2012,07,19,13,06,21.40
2012,07,19,13,07,21.30
2012,07,19,13,08,21.30
2012,07,19,13,09,21.30
2012,07,19,13,10,21.20
2012,07,19,13,11,21.20
2012,07,19,13,12,21.20
2012,07,19,13,13,21.20
2012,07,19,13,14,21.20
2012,07,19,13,15,21.20
2012,07,19,13,16,21.20
2012,07,19,13,17,21.20
2012,07,19,13,18,21.20
2012,07,19,13,19,21.20
2012,07,19,13,20,21.20
2012,07,19,13,21,21.00
2012,07,19,13,22,21.00
2012,07,19,13,23,20.90
2012,07,19,13,24,20.90
2012,07,19,13,25,21.00
2012,07,19,13,26,21.10
2012,07,19,13,27,21.20
2012,07,19,13,28,21.40
2012,07,19,13,29,21.50
2012,07,19,13,30,21.60
2012,07,19,13,31,21.60
2012,07,19,13,32,21.40
2012,07,19,13,33,21.30
2012,07,19,13,34,21.50
2012,07,19,13,35,21.60
2012,07,19,13,36,21.60
2012,07,19,13,37,21.80
2012,07,19,13,38,21.90
2012,07,19,13,39,22.00
2012,07,19,13,40,22.10
2012,07,19,13,41,22.30
2012,07,19,13,42,22.40
2012,07,19,13,43,22.30
2012,07,19,13,44,22.20
2012,07,19,13,45,22.00
2012,07,19,13,46,22.00
2012,07,19,13,47,21.90
2012,07,19,13,48,21.80
2012,07,19,13,49,21.80
2012,07,19,13,50,21.90
2012,07,19,13,51,21.80
2012,07,19,13,52,21.60
2012,07,19,13,53,21.60
2012,07,19,13,54,21.80
2012,07,19,13,55,22.00
2012,07,19,13,56,22.10
2012,07,19,13,57,22.00
2012,07,19,13,58,22.10
2012,07,19,13,59,22.20
2012,07,19,14,00,22.30
2012,07,19,14,01,22.30
2012,07,19,14,02,22.20
2012,07,19,14,03,22.20
2012,07,19,14,04,22.20
2012,07,19,14,05,22.10
2012,07,19,14,06,22.20
2012,07,19,14,07,22.10
2012,07,19,14,08,22.10
2012,07,19,14,09,22.10
2012,07,19,14,10,22.10
2012,07,19,14,11,22.20
2012,07,19,14,12,22.30
2012,07,19,14,13,22.40
2012,07,19,14,14,22.30
2012,07,19,14,15,22.20
2012,07,19,14,16,22.20
2012,07,19,14,17,22.20
2012,07,19,14,18,22.30
2012,07,19,14,19,22.40
2012,07,19,14,20,22.30
2012,07,19,14,21,22.40
2012,07,19,14,22,22.30
2012,07,19,14,23,22.30
2012,07,19,14,24,22.10
2012,07,19,14,25,22.00
2012,07,19,14,26,21.90
2012,07,19,14,27,21.80
2012,07,19,14,28,21.70
2012,07,19,14,29,21.50
2012,07,19,14,30,21.40
2012,07,19,14,31,21.40
2012,07,19,14,32,21.30
2012,07,19,14,33,21.40
2012,07,19,14,34,21.60
2012,07,19,14,35,21.60
2012,07,19,14,36,21.70
2012,07,19,14,37,21.90
2012,07,19,14,38,22.00
2012,07,19,14,39,22.10
2012,07,19,14,40,22.10
2012,07,19,14,41,22.00
2012,07,19,14,42,22.00
2012,07,19,14,43,22.00
2012,07,19,14,44,22.10
2012,07,19,14,45,22.20
2012,07,19,14,46,22.30
2012,07,19,14,47,22.30
2012,07,19,14,48,22.40
2012,07,19,14,49,22.50
2012,07,19,14,50,22.60
2012,07,19,14,51,22.60
2012,07,19,14,52,22.60
2012,07,19,14,53,22.60
2012,07,19,14,54,22.60
2012,07,19,14,55,22.70
2012,07,19,14,56,22.80
2012,07,19,14,57,22.90
2012,07,19,14,58,22.90
2012,07,19,14,59,22.90
2012,07,19,15,00,22.90
2012,07,19,15,01,22.80
2012,07,19,15,02,22.70
2012,07,19,15,03,22.70
2012,07,19,15,04,22.70
2012,07,19,15,05,22.80
2012,07,19,15,06,22.80
2012,07,19,15,07,22.80
2012,07,19,15,08,22.80
2012,07,19,15,09,22.90
2012,07,19,15,10,22.90
2012,07,19,15,11,22.80
2012,07,19,15,12,22.70
2012,07,19,15,13,22.60
2012,07,19,15,14,22.60
2012,07,19,15,15,22.50
2012,07,19,15,16,22.50
2012,07,19,15,17,22.50
2012,07,19,15,18,22.60
2012,07,19,15,19,22.60
2012,07,19,15,20,22.80
2012,07,19,15,21,22.90
2012,07,19,15,22,22.90
2012,07,19,15,23,22.90
2012,07,19,15,24,22.90
2012,07,19,15,25,22.90
2012,07,19,15,26,22.80
2012,07,19,15,27,22.80
2012,07,19,15,28,22.80
2012,07,19,15,29,22.80
2012,07,19,15,30,22.90
2012,07,19,15,31,22.90
2012,07,19,15,32,22.90
2012,07,19,15,33,22.90
2012,07,19,15,34,22.90
2012,07,19,15,35,22.80
2012,07,19,15,36,22.80
2012,07,19,15,37,22.80
2012,07,19,15,38,22.80
2012,07,19,15,39,22.80
2012,07,19,15,40,22.80
2012,07,19,15,41,22.90
2012,07,19,15,42,22.90
2012,07,19,15,43,22.90
2012,07,19,15,44,22.90
2012,07,19,15,45,22.90
2012,07,19,15,46,22.90
2012,07,19,15,47,22.80
2012,07,19,15,48,22.80
2012,07,19,15,49,22.90
2012,07,19,15,50,22.90
2012,07,19,15,51,22.90
2012,07,19,15,52,23.00
2012,07,19,15,53,23.10
2012,07,19,15,54,23.30
2012,07,19,15,55,23.30
2012,07,19,15,56,23.40
2012,07,19,15,57,23.40
2012,07,19,15,58,23.30
2012,07,19,15,59,23.20
2012,07,19,16,00,23.10
2012,07,19,16,01,23.10
2012,07,19,16,02,23.10
2012,07,19,16,03,23.20
2012,07,19,16,04,23.20
2012,07,19,16,05,23.30
2012,07,19,16,06,23.40
2012,07,19,16,07,23.50
2012,07,19,16,08,23.60
2012,07,19,16,09,23.70
2012,07,19,16,10,23.70
2012,07,19,16,11,23.70
2012,07,19,16,12,23.70
2012,07,19,16,13,23.70
2012,07,19,16,14,23.70
2012,07,19,16,15,23.50
2012,07,19,16,16,23.40
2012,07,19,16,17,23.30
2012,07,19,16,18,23.40
2012,07,19,16,19,23.50
2012,07,19,16,20,23.40
2012,07,19,16,21,23.40
2012,07,19,16,22,23.40
2012,07,19,16,23,23.30
2012,07,19,16,24,23.30
2012,07,19,16,25,23.50
2012,07,19,16,26,23.60
2012,07,19,16,27,23.70
2012,07,19,16,28,23.70
2012,07,19,16,29,23.80
2012,07,19,16,30,23.90
2012,07,19,16,31,24.00
2012,07,19,16,32,24.10
2012,07,19,16,33,24.10
2012,07,19,16,34,24.10
2012,07,19,16,35,24.10
2012,07,19,16,36,24.00
2012,07,19,16,37,24.10
2012,07,19,16,38,24.20
2012,07,19,16,39,24.30
2012,07,19,16,40,24.20
2012,07,19,16,41,24.20
2012,07,19,16,42,24.40
2012,07,19,16,43,24.50
2012,07,19,16,44,24.60
2012,07,19,16,45,24.60
2012,07,19,16,46,24.60
2012,07,19,16,47,24.60
2012,07,19,16,48,24.60
2012,07,19,16,49,24.50
2012,07,19,16,50,24.50
2012,07,19,16,51,24.30
2012,07,19,16,52,24.20
2012,07,19,16,53,24.20
2012,07,19,16,54,24.20
2012,07,19,16,55,24.30
2012,07,19,16,56,24.30
2012,07,19,16,57,24.30
2012,07,19,16,58,24.30
2012,07,19,16,59,24.30
2012,07,19,17,00,24.10
2012,07,19,17,01,24.00
2012,07,19,17,02,23.90
2012,07,19,17,03,24.00
2012,07,19,17,04,24.10
2012,07,19,17,05,23.90
2012,07,19,17,06,23.90
2012,07,19,17,07,24.00
2012,07,19,17,08,24.10
2012,07,19,17,09,24.10
2012,07,19,17,10,24.00
2012,07,19,17,11,23.80
2012,07,19,17,12,23.90
2012,07,19,17,13,23.90
2012,07,19,17,14,23.90
2012,07,19,17,15,24.00
2012,07,19,17,16,24.10
2012,07,19,17,17,24.10
2012,07,19,17,18,24.10
2012,07,19,17,19,24.20